TimeEST,TemperatureF,Dew PointF,Humidity,Sea Level PressureIn,VisibilityMPH,Wind Direction,Wind SpeedMPH,Gust SpeedMPH,PrecipitationIn,Events,Conditions,WindDirDegrees,DateUTC
12:53 AM,66.0,61.0,84,30.05,10.0,Calm,Calm,-,N/A,,Partly Cloudy,0,2013-01-16 05:53:00
1:53 AM,64.9,61.0,87,30.06,10.0,Calm,Calm,-,N/A,,Scattered Clouds,0,2013-01-16 06:53:00
2:53 AM,64.9,61.0,87,30.05,10.0,Calm,Calm,-,N/A,,Partly Cloudy,0,2013-01-16 07:53:00
3:53 AM,63.0,60.1,90,30.05,10.0,Calm,Calm,-,N/A,,Partly Cloudy,0,2013-01-16 08:53:00
4:53 AM,62.1,60.1,93,30.05,10.0,Calm,Calm,-,N/A,,Scattered Clouds,0,2013-01-16 09:53:00
5:53 AM,64.9,61.0,87,30.06,10.0,Calm,Calm,-,0.00,,Scattered Clouds,0,2013-01-16 10:53:00
6:53 AM,66.9,63.0,87,30.07,10.0,Calm,Calm,-,N/A,,Mostly Cloudy,0,2013-01-16 11:53:00
7:53 AM,68.0,64.0,87,30.09,10.0,Calm,Calm,-,N/A,,Scattered Clouds,0,2013-01-16 12:53:00
8:53 AM,75.0,66.0,73,30.10,10.0,Calm,Calm,-,N/A,,Scattered Clouds,0,2013-01-16 13:53:00
9:53 AM,79.0,66.9,66,30.11,10.0,South,5.8,-,N/A,,Mostly Cloudy,170,2013-01-16 14:53:00
10:53 AM,79.0,64.0,60,30.09,10.0,SSE,10.4,-,N/A,,Mostly Cloudy,150,2013-01-16 15:53:00
11:53 AM,78.1,64.0,62,30.07,10.0,SE,10.4,-,N/A,,Mostly Cloudy,140,2013-01-16 16:53:00
12:53 PM,80.1,64.9,60,30.05,10.0,SE,12.7,-,N/A,,Mostly Cloudy,140,2013-01-16 17:53:00
1:53 PM,81.0,64.9,58,30.03,10.0,ESE,13.8,18.4,N/A,,Mostly Cloudy,120,2013-01-16 18:53:00
2:53 PM,79.0,66.9,66,30.02,10.0,SE,15.0,-,N/A,,Mostly Cloudy,130,2013-01-16 19:53:00
3:53 PM,79.0,66.0,64,30.03,10.0,SE,12.7,-,N/A,,Mostly Cloudy,140,2013-01-16 20:53:00
4:53 PM,78.1,66.9,68,30.03,10.0,SE,13.8,-,N/A,,Mostly Cloudy,140,2013-01-16 21:53:00
5:53 PM,77.0,66.9,71,30.04,10.0,SSE,8.1,-,N/A,,Mostly Cloudy,150,2013-01-16 22:53:00
6:53 PM,75.9,66.0,71,30.06,10.0,SSE,10.4,-,N/A,,Scattered Clouds,150,2013-01-16 23:53:00
7:53 PM,75.0,66.9,76,30.06,10.0,SSE,8.1,-,N/A,,Scattered Clouds,150,2013-01-17 00:53:00
8:53 PM,75.0,66.9,76,30.07,10.0,SE,8.1,-,N/A,,Scattered Clouds,140,2013-01-17 01:53:00
9:53 PM,73.9,66.9,79,30.06,10.0,SSE,4.6,-,N/A,,Scattered Clouds,150,2013-01-17 02:53:00
10:53 PM,73.0,66.0,79,30.05,10.0,SSE,4.6,-,N/A,,Scattered Clouds,150,2013-01-17 03:53:00
11:53 PM,73.9,68.0,82,30.04,10.0,SSE,6.9,-,N/A,,Mostly Cloudy,150,2013-01-17 04:53:00